Regional Weather Roundup
Issued by NWS

Home | Current Version | Previous Version | Graphics & Text | Print | Product List | Glossary On
Versions: 1 2 3 4 5 6 7 8 9 10 11 12 13 14 15 16 17 18 19 20 21 22 23 24 25 26 27 28 29 30 31 32 33 34 35 36 37 38 39 40 41 42 43 44 45 46 47 48 49 50
076
ASUS43 KOAX 221511
RWRNE

WEATHER ROUNDUP FOR NEBRASKA
NATIONAL WEATHER SERVICE OMAHA NE
1000 AM CDT THU JUN 22 2017

NOTES: SATELLITE DATA IS BEING USED TO AUGMENT CLOUD COVER ABOVE
       12000 FEET.
       "FAIR" INDICATES FEW OR NO CLOUDS BELOW 12,000 FEET WITH NO
       SIGNIFICANT WEATHER AND/OR OBSTRUCTIONS TO VISIBILITY.

  * THESE STATIONS DO NOT REPORT WEATHER SUCH AS RAIN...SNOW OR FOG.

NEZ001>004-019>022-054>056-221600-
NEBRASKA PANHANDLE

CITY           SKY/WX    TMP DP  RH WIND       PRES   REMARKS
SCOTTSBLUFF    FAIR      73  51  46 NW17      29.90R
ALLIANCE       FAIR      66  52  60 N18G25    29.88R
CHADRON        FAIR      69  49  48 N10       29.89R
GORDON         PTSUNNY   66  52  61 NE14      29.87R
KIMBALL        FAIR      71  52  52 NW25G32   29.93R
SIDNEY         FAIR      75  53  46 N25G32    29.88R
$$

NEZ057>060-069>072-079>082-221600-
SOUTHWEST NEBRASKA

CITY           SKY/WX    TMP DP  RH WIND       PRES   REMARKS
NORTH PLATTE   FAIR      82  57  42 NW8       29.67R
IMPERIAL       FAIR      89  41  18 NW25G31   29.73R
LEXINGTON      FAIR      81  61  51 W7        29.64F
MCCOOK         FAIR      83  56  39 W9        29.65F
OGALLALA       FAIR      78  55  44 NW26G36   29.76R
$$

NEZ005>010-023>029-035>040-094-221600-
NORTH CENTRAL NEBRASKA

CITY           SKY/WX    TMP DP  RH WIND       PRES   REMARKS
VALENTINE      PTSUNNY   70  52  52 NE20G29   29.80R HAZE
AINSWORTH      CLOUDY    74  57  56 NE25      29.77R
BROKEN BOW     FAIR      82  61  48 NW8       29.65R
O`NEILL        CLOUDY    76  68  75 NE15      29.69R
ORD            FAIR      79  58  48 SW8       29.63F
THEDFORD       FAIR      76  65  69 N14G25    29.74R
$$

NEZ041-046>049-061>064-073>077-083>087-221600-
SOUTH CENTRAL NEBRASKA

CITY           SKY/WX    TMP DP  RH WIND       PRES   REMARKS
GRAND ISLAND   FAIR      82  62  50 S14G23    29.63F
AURORA         FAIR      83  61  46 SW14G21   29.64S
HASTINGS       FAIR      80  61  52 S14       29.66F
HEBRON         FAIR      82  63  52 S15       29.66F
HOLDREGE       FAIR      80  60  51 S8G17     29.66R
KEARNEY *      FAIR      81  61  50 S15       29.65F
YORK           FAIR      82  63  51 SW14      29.64F
$$

NEZ011>018-030>034-042>045-221600-
NORTHEAST NEBRASKA

CITY           SKY/WX    TMP DP  RH WIND       PRES   REMARKS
NORFOLK        FAIR      79  61  53 S8        29.62F
ALBION         FAIR      81  60  48 S5        29.65F
BLAIR          FAIR      80  62  55 S16       29.66S
FREMONT        FAIR      81  63  54 S9        29.65F
TEKAMAH        FAIR      83  62  49 S15       29.63F
WAYNE          FAIR      81  60  49 S10       29.64F
$$

NEZ050>053-065>068-078-088>093-221600-
SOUTHEAST NEBRASKA

CITY           SKY/WX    TMP DP  RH WIND       PRES   REMARKS
LINCOLN        FAIR      80  65  59 S12       29.66S
OMAHA EPPLEY   FAIR      79  62  56 S14G20    29.66F
BEATRICE       FAIR      80  65  59 S20G26    29.68S
FALLS CITY     FAIR      77  65  66 S15       29.71F
NEBRASKA CITY  FAIR      76  64  67 S18       29.67F
PLATTSMOUTH    FAIR      77  62  59 S12G20    29.68S
$$

NEZ044-045-051>053-067-221600-
OMAHA AREA

CITY           SKY/WX    TMP DP  RH WIND       PRES   REMARKS
OMAHA EPPLEY   FAIR      79  62  56 S14G20    29.66F
BLAIR          FAIR      80  62  55 S16       29.66S
FREMONT        FAIR      81  63  54 S9        29.65F
MILLARD        FAIR      80  65  59 S10       29.66S
OFFUTT AFB     FAIR      80  63  55 S13G23    29.65F
PLATTSMOUTH    FAIR      77  62  59 S12G20    29.68S
WAHOO          FAIR      82  61  49 S12       29.65S
$$




USA.gov is the U.S. government's official web portal to all federal, state and local government web resources and services.